FW5732 Weather Reports


Display with metric or nautical units.
time (UTC)temp
F
wind
direction
speed
MPH
gust
MPH
rain 1hr
in
rain 24hr
in
rain mn
in
humidity
%
barometer
mb
20260506090537 63 0.0 0.0 0.00 0.00 0.00 68 1006.9
20260506085556 63 0.0 0.0 0.00 0.00 0.00 69 1006.8
20260506084537 62 0.0 0.0 0.00 0.00 0.00 71 1006.8
20260506083616 61 0.0 0.0 0.00 0.00 0.00 72 1006.7
20260506081516 59 0.0 0.0 0.00 0.00 0.00 76 1006.6
20260506080537 59 0.0 0.0 0.00 0.00 0.00 77 1006.7
20260506072516 58 0.0 0.0 0.00 0.00 0.00 80 1007.1
20260506071516 57 0.0 0.0 0.00 0.00 0.00 82 1007.0
20260506070556 56 0.0 0.0 0.00 0.00 0.00 84 1006.9
20260506062516 54 0.0 0.0 0.00 0.00 0.00 88 1006.7
20260506061536 53 0.0 0.0 0.00 0.00 0.00 89 1006.6
20260506060516 52 0.0 0.0 0.00 0.00 0.00 89 1006.7
20260506050516 47 0.0 0.0 0.00 0.00 0.00 92 1006.4
20260506044516 46 0.0 0.0 0.00 0.00 0.00 92 1006.4
20260506043536 46 0.0 0.0 0.00 0.00 0.00 91 1006.5
20260506042519 46 0.0 0.0 0.00 0.00 0.00 92 1006.8
20260506041656 46 0.0 0.0 0.00 0.00 0.00 91 1006.8
20260506040515 46 0.0 0.0 0.00 0.00 0.00 91 1006.7
20260506035516 46 0.0 0.0 0.00 0.00 0.00 91 1006.9
20260506034515 46 0.0 0.0 0.00 0.00 0.00 91 1006.9
20260506033556 46 0.0 0.0 0.00 0.00 0.00 91 1007.0
20260506032515 46 0.0 0.0 0.00 0.00 0.00 91 1007.2
20260506031515 46 0.0 0.0 0.00 0.00 0.00 91 1007.2
20260506030536 47 0.0 0.0 0.00 0.00 0.00 91 1006.9
20260506025515 47 0.0 0.0 0.00 0.00 0.00 91 1007.1
20260506024518 47 0.0 0.0 0.00 0.00 0.00 91 1007.1
20260506023517 47 0.0 0.0 0.00 0.00 0.00 91 1007.4
20260506022517 47 0.0 0.0 0.00 0.00 0.00 90 1007.2
20260506021557 48 0.0 0.0 0.00 0.00 0.00 90 1007.2
20260506020517 48 0.0 0.0 0.00 0.00 0.00 90 1007.3
20260506015517 48 0.0 0.0 0.00 0.00 0.00 90 1007.5
20260506014538 48 0.0 0.0 0.00 0.00 0.00 90 1007.5
20260506013537 48 0.0 0.0 0.00 0.00 0.00 90 1007.4
20260506012618 49 0.0 0.0 0.00 0.00 0.00 90 1007.7
20260506011517 49 0.0 0.0 0.00 0.00 0.00 90 1007.7
20260506010517 49 0.0 0.0 0.00 0.00 0.00 90 1007.6
20260506005517 49 0.0 0.0 0.00 0.00 0.00 90 1007.4
20260506004537 49 0.0 0.0 0.00 0.00 0.00 90 1007.4
20260506003537 50 0.0 0.0 0.00 0.00 0.00 89 1007.6
20260506002517 50 0.0 0.0 0.00 0.00 0.00 90 1007.7
20260506001557 50 0.0 0.0 0.00 0.00 0.00 90 1007.5
20260506000517 50 0.0 0.0 0.00 0.00 0.00 89 1007.7
20260505235537 50 0.0 0.0 0.00 0.00 0.00 89 1007.9
20260505190516 57 0.0 0.0 0.00 0.00 0.00 82 1007.3
20260505185536 58 0.0 0.0 0.00 0.00 0.00 81 1007.2
20260505183616 58 0.0 0.0 0.00 0.00 0.00 80 1007.1
20260505182516 59 0.0 0.0 0.00 0.00 0.00 79 1006.8
20260505181515 59 0.0 0.0 0.00 0.00 0.00 78 1006.8
20260505180535 60 0.0 0.0 0.00 0.00 0.00 77 1006.8
20260505175515 61 0.0 0.0 0.00 0.00 0.00 74 1006.5
20260505174515 61 0.0 0.0 0.00 0.00 0.00 73 1006.5
20260505173616 61 0.0 0.0 0.00 0.00 0.00 72 1006.7
20260505172537 61 0.0 0.0 0.00 0.00 0.00 73 1006.7
20260505171518 62 0.0 0.0 0.00 0.00 0.00 73 1006.7
20260505170517 62 0.0 0.0 0.00 0.00 0.00 72 1006.7
20260505165517 62 0.0 0.0 0.00 0.00 0.00 70 1006.7
20260505163517 62 0.0 0.0 0.00 0.00 0.00 71 1006.8
20260505161518 62 0.0 0.0 0.00 0.00 0.00 71 1006.9
20260505160537 62 0.0 0.0 0.00 0.00 0.00 71 1006.9
20260505152517 62 0.0 0.0 0.00 0.00 0.00 72 1006.9
20260505151517 62 0.0 0.0 0.00 0.00 0.00 72 1006.9
20260505150557 63 0.0 0.0 0.00 0.00 0.00 71 1006.8
20260505140537 62 0.0 0.0 0.00 0.00 0.00 70 1006.8
20260505124516 68 0.0 0.0 0.00 0.00 0.00 63 1007.1
20260505123557 69 0.0 0.0 0.00 0.00 0.00 61 1007.1
20260505122657 71 0.0 0.0 0.00 0.00 0.00 58 1007.1
20260505121516 72 0.0 0.0 0.00 0.00 0.00 56 1007.2
20260505120557 73 0.0 0.0 0.00 0.00 0.00 51 1007.2
20260505115516 73 0.0 0.0 0.00 0.00 0.00 52 1007.2
20260505114637 71 0.0 0.0 0.00 0.00 0.00 52 1007.1
20260505113517 71 0.0 0.0 0.00 0.00 0.00 51 1007.1